CZ-3C DEB, 40204

Orbit data source: Space-Track

CZ-3C DEB, 40204 is space debris in HEO originally from a launch on Fri, 24 Feb 2012 UTC launched from the Xichang Space Center, China (XSC). Debris objects in space refer to the collection of defunct objects orbiting the Earth. Examples of debris include non-operational satellites, rocket bodies, and fragments generated from explosions, collisions, or faulty payload assembly.

Loading next visibility...
CZ-3C DEB details
Identifier
40204, 2012-008P
Orbit
HEO
Last TLE update1 week ago
Origin
Flag of CNCASC (CN / PRC)
ManufacturerCALT
MissionSpacecraft
Bus & MotorUnknown
MassUnknown
Launch date (UTC)
2012-02-24 (13 years ago)
Launch vehicleUnknown
Launch site
Xichang Space Center, China (XSC)
Object type
Payload
Rocket body
Debris
Shape & HBRUnknown
Radar Cross SectionMedium (>0.1 m² and <1 m²)

Expand to show TLE details & history

TLE from 1 week ago
0 CZ-3C DEB
1 40204U 12008P   24354.51978595  .00000054  00000-0  19851-2 0  9993
2 40204  19.9162 204.7876 7117225 239.6601  32.5432  2.26995925 84343
Epoch: 2024-12-19T12:28Z
Definitive object data (Epoch: 2024-12-19T12:28:29.506Z)
Latitude-0.00015°
Longitude-70.91202°
Altitude12,442.852 km
Speed5.105 km/s
True Right ascension13h 39m 14s
True Declination0° 00' 01"
Sunlit
Object was in daylight at TLE epoch
Visualization TLE readout
Latitude12.0382°
Longitude70.39293°
Altitude7,783.309 km
Speed6.324 km/s
Apparent Right ascension23h 37m 20s
Apparent Declination-6° 57' 24"
Sunlit
Object is in daylight
Visualization observer readout
Local Sidereal Time22:01:56
Azimuth149.276° SSE
Elevation38.213°
Doppler factor1
Orbital elements
Apogee altitude35,491.542 km
Perigee altitude673.29 km
Semi-major axis24,460.553 km
Eccentricity0.7117225
Inclination19.9162°
RAAN204.7876°
Arg. of periapsis239.6601°
True anomaly120.29239°
Mean anomaly32.5432°
Eccentric anomaly71.13031°
Mean motion0.56734 °/min
BSTAR0.0019851
Orbital period634.54 mins
Loading maneuver chart data...
Loading historical data...
Loading historical data...
Loading historical data...
Loading historical data...
Loading historical data...
Loading historical data...
Loading historical data...

CZ-3C DEB Visibility forecast

Observer location: undefined°, undefined

Span
Click to sort rows by Start time (UTC) header in descending order
Start Az.
Max El. time (UTC)
Max El. Az.
Max El.
End time (UTC)
End Az.
13 mins2024-12-26 22:38:44.723Z149.318° SSE2024-12-26 22:38:44.723Z149.318° SSE31.709°2024-12-26 22:51:44.723Z131.641° SE
523 mins2024-12-27 11:00:44.723Z108.437° ESE2024-12-27 17:46:44.723Z115.15° SE36.596°2024-12-27 19:43:44.723Z103.391° ESE
|